Hoquiam, WA

4:51 AM PST on December 09, 2016 (GMT -0800)
Bowerman

Weather History for KHQM - April, 2013

Change the Weather History Date:

Monday, April 8, 2013

  Actual Average Record
Temperature  
Mean Temperature 48 °F 48 °F  
Max Temperature 51 °F 55 °F 70 °F (1959)
Min Temperature 44 °F 41 °F 30 °F (1975)
Degree Days  
Heating Degree Days 17 17  
Month to date heating degree days 119 139  
Cooling Degree Days 0 0  
Month to date cooling degree days 0 0  
Year to date cooling degree days 0 0  
Moisture  
Dew Point 42 °F    
Average Humidity 82    
Maximum Humidity 93    
Minimum Humidity 71    
Precipitation  
Precipitation 0.00 in 0.18 in 1.20 in (1994)
Month to date precipitation 3.57 1.58  
Year to date precipitation 22.49 26.11  
Sea Level Pressure  
Sea Level Pressure 30.13 in    
Wind  
Wind Speed 8 mph (WSW)    
Max Wind Speed 16 mph    
Max Gust Speed 20 mph    
Visibility 10 miles    
Events      
T = Trace of Precipitation, MM = Missing Value Source: NWS Daily Summary

Daily Weather History Graph

Daily Weather History Graph

Search for Another Location

Airport or City:

Trip Planner

Search our weather history database for the weather conditions in past years. The results will help you decide how hot, cold, wet, or windy it might be!

Date:

Astronomy

Apr. 08, 2013 Rise Set
Actual Time 6:40 AM PDT 7:55 PM PDT
Civil Twilight 6:09 AM PDT 8:26 PM PDT
Nautical Twilight 5:31 AM PDT 9:04 PM PDT
Astronomical Twilight 4:51 AM PDT 9:44 PM PDT
Moon 5:39 AM PDT (4/8) 6:32 PM PDT (4/8)
Length of Visible Light 14h 17m
Length of Day
13h 14m
Waning Crescent, 3% of the Moon is Illuminated
Apr 8
Waning Crescent
Apr 10
New
Apr 18
First Quarter
Apr 25
Full
May 2
Last Quarter

Hourly Weather History & Observations

Time (PDT) Temp. Windchill Dew Point Humidity Pressure Visibility Wind Dir Wind Speed Gust Speed Precip Events Conditions
12:53 AM 46.0 °F 44.8 °F 39.9 °F 79% 29.97 in 10.0 mi West 3.5 mph - N/A   Overcast
1:53 AM 46.0 °F 43.9 °F 41.0 °F 83% 29.99 in 10.0 mi West 4.6 mph - N/A   Overcast
2:23 AM 46.4 °F 41.1 °F 42.8 °F 87% 29.97 in 9.0 mi WSW 11.5 mph - N/A   Overcast
2:50 AM 48.2 °F - 42.8 °F 82% 29.98 in 10.0 mi West 15.0 mph - N/A   Overcast
2:53 AM 48.0 °F - 42.1 °F 80% 29.99 in 10.0 mi West 12.7 mph - N/A   Overcast
3:53 AM 48.0 °F - 42.1 °F 80% 30.01 in 10.0 mi West 12.7 mph - N/A   Overcast
4:21 AM 48.2 °F - 42.8 °F 82% 30.01 in 9.0 mi West 15.0 mph - N/A   Overcast
4:33 AM 48.2 °F - 42.8 °F 82% 30.01 in 10.0 mi West 13.8 mph - N/A   Overcast
4:53 AM 48.0 °F - 42.1 °F 80% 30.03 in 10.0 mi West 11.5 mph - N/A   Overcast
5:25 AM 46.4 °F 44.3 °F 42.8 °F 87% 30.04 in 9.0 mi West 4.6 mph - N/A   Overcast
5:48 AM 46.4 °F 42.4 °F 42.8 °F 87% 30.04 in 10.0 mi West 8.1 mph - N/A   Overcast
5:53 AM 46.9 °F - 42.1 °F 83% 30.06 in 10.0 mi West 6.9 mph - N/A   Overcast
6:32 AM 46.4 °F 45.2 °F 44.6 °F 93% 30.05 in 9.0 mi West 3.5 mph - N/A   Overcast
6:53 AM 46.9 °F - 44.1 °F 90% 30.07 in 8.0 mi West 6.9 mph - N/A   Overcast
7:18 AM 48.2 °F - 44.6 °F 87% 30.06 in 7.0 mi West 10.4 mph - N/A   Overcast
7:53 AM 48.9 °F - 44.1 °F 83% 30.08 in 9.0 mi West 8.1 mph - N/A   Overcast
8:53 AM 48.9 °F - 44.1 °F 83% 30.11 in 8.0 mi West 13.8 mph - N/A   Overcast
9:53 AM 48.9 °F - 43.0 °F 80% 30.12 in 10.0 mi West 9.2 mph - N/A   Overcast
10:01 AM 48.2 °F - 42.8 °F 82% 30.11 in 10.0 mi West 10.4 mph - N/A   Overcast
10:19 AM 50.0 °F - 42.8 °F 76% 30.12 in 10.0 mi WSW 11.5 mph - N/A   Overcast
10:53 AM 48.9 °F - 43.0 °F 80% 30.14 in 10.0 mi WSW 11.5 mph - N/A   Overcast
11:53 AM 50.0 °F - 42.1 °F 74% 30.17 in 10.0 mi WSW 9.2 mph - N/A   Overcast
12:53 PM 50.0 °F - 41.0 °F 71% 30.19 in 10.0 mi WSW 10.4 mph - N/A   Overcast
1:53 PM 50.0 °F - 43.0 °F 77% 30.21 in 10.0 mi WSW 11.5 mph - N/A   Overcast
2:53 PM 50.0 °F - 43.0 °F 77% 30.21 in 10.0 mi WSW 10.4 mph - N/A   Overcast
3:03 PM 50.0 °F - 42.8 °F 76% 30.20 in 10.0 mi WSW 10.4 mph - N/A   Overcast
3:53 PM 50.0 °F - 43.0 °F 77% 30.22 in 10.0 mi WSW 12.7 mph - N/A   Overcast
4:53 PM 50.0 °F - 43.0 °F 77% 30.23 in 10.0 mi WSW 11.5 mph - N/A   Overcast
5:53 PM 50.0 °F - 42.1 °F 74% 30.25 in 10.0 mi West 13.8 mph - N/A   Overcast
6:53 PM 48.9 °F - 41.0 °F 74% 30.26 in 10.0 mi West 12.7 mph - N/A   Clear
7:53 PM 48.0 °F - 41.0 °F 77% 30.27 in 10.0 mi West 6.9 mph - N/A   Partly Cloudy
8:53 PM 46.9 °F - 41.0 °F 80% 30.27 in 10.0 mi WSW 5.8 mph - N/A   Clear
9:35 PM 46.4 °F 45.2 °F 41.0 °F 81% 30.27 in 10.0 mi WNW 3.5 mph - N/A   Mostly Cloudy
9:53 PM 46.0 °F - 41.0 °F 83% 30.29 in 10.0 mi Calm Calm - N/A   Mostly Cloudy
10:53 PM 46.0 °F - 39.9 °F 79% 30.30 in 10.0 mi Calm Calm - N/A   Overcast
11:36 PM 46.4 °F 45.2 °F 41.0 °F 81% 30.29 in 10.0 mi SSW 3.5 mph - N/A   Scattered Clouds
11:53 PM 45.0 °F - 41.0 °F 86% 30.31 in 10.0 mi Calm Calm - N/A   Scattered Clouds